Time,TemperatureF,DewpointF,PressureIn,WindDirection,WindDirectionDegrees,WindSpeedMPH,WindSpeedGustMPH,Humidity,HourlyPrecipIn,Conditions,Clouds,dailyrainin,SoftwareType,DateUTC
2013-06-21 00:01:00,81.7,50.4,29.84,SSE,158,12.3,17.4,34,0.00,,,0.00,WUHU216HW,2013-06-21 05:01:00,
2013-06-21 00:06:00,81.7,51.2,29.84,South,180,19.5,19.5,35,0.00,,,0.00,WUHU216HW,2013-06-21 05:06:00,
2013-06-21 00:11:00,81.7,50.4,29.83,SW,225,11.9,19.5,34,0.00,,,0.00,WUHU216HW,2013-06-21 05:11:00,
2013-06-21 00:16:00,81.7,50.4,29.83,SE,135,15.2,16.8,34,0.00,,,0.00,WUHU216HW,2013-06-21 05:16:00,
2013-06-21 00:21:00,81.5,50.3,29.84,South,180,9.2,17.7,34,0.00,,,0.00,WUHU216HW,2013-06-21 05:21:00,
2013-06-21 00:26:00,81.5,50.3,29.84,SSW,203,13.9,17.7,34,0.00,,,0.00,WUHU216HW,2013-06-21 05:26:00,
2013-06-21 00:31:00,81.5,50.3,29.84,SSW,203,12.1,13.9,34,0.00,,,0.00,WUHU216HW,2013-06-21 05:31:00,
2013-06-21 00:36:00,81.4,50.1,29.84,South,180,7.4,13.0,34,0.00,,,0.00,WUHU216HW,2013-06-21 05:36:00,
2013-06-21 00:41:00,81.4,50.1,29.84,South,180,6.9,14.1,34,0.00,,,0.00,WUHU216HW,2013-06-21 05:41:00,
2013-06-21 00:46:00,81.4,50.1,29.84,SSE,158,9.8,14.1,34,0.00,,,0.00,WUHU216HW,2013-06-21 05:46:00,
2013-06-21 00:51:00,81.4,50.1,29.83,SSE,158,6.9,15.7,34,0.00,,,0.00,WUHU216HW,2013-06-21 05:51:00,
2013-06-21 00:56:00,81.0,49.1,29.83,SSE,158,13.2,15.7,33,0.00,,,0.00,WUHU216HW,2013-06-21 05:56:00,
2013-06-21 01:01:00,81.0,49.9,29.84,South,180,11.6,13.6,34,0.00,,,0.00,WUHU216HW,2013-06-21 06:01:00,
2013-06-21 01:06:00,81.0,49.9,29.83,SE,135,10.5,15.2,34,0.00,,,0.00,WUHU216HW,2013-06-21 06:06:00,
2013-06-21 01:11:00,81.0,49.9,29.83,SSE,158,8.5,15.2,34,0.00,,,0.00,WUHU216HW,2013-06-21 06:11:00,
2013-06-21 01:17:00,80.8,49.7,29.83,SSE,158,8.9,13.6,34,0.00,,,0.00,WUHU216HW,2013-06-21 06:17:00,
2013-06-21 01:22:00,80.6,49.5,29.83,SSW,203,11.0,12.8,34,0.00,,,0.00,WUHU216HW,2013-06-21 06:22:00,
2013-06-21 01:27:00,80.8,49.7,29.83,South,180,7.6,13.2,34,0.00,,,0.00,WUHU216HW,2013-06-21 06:27:00,
2013-06-21 01:32:00,80.6,49.5,29.83,South,180,10.5,13.2,34,0.00,,,0.00,WUHU216HW,2013-06-21 06:32:00,
2013-06-21 01:37:00,80.5,49.4,29.83,South,180,11.4,16.3,34,0.00,,,0.00,WUHU216HW,2013-06-21 06:37:00,
2013-06-21 01:42:00,80.5,48.6,29.83,SSW,203,10.5,16.3,33,0.00,,,0.00,WUHU216HW,2013-06-21 06:42:00,
2013-06-21 01:47:00,80.5,49.4,29.83,SSW,203,13.2,14.8,34,0.00,,,0.00,WUHU216HW,2013-06-21 06:47:00,
2013-06-21 01:52:00,80.3,48.4,29.82,South,180,12.3,16.6,33,0.00,,,0.00,WUHU216HW,2013-06-21 06:52:00,
2013-06-21 01:57:00,80.3,48.4,29.82,SSE,158,10.3,16.6,33,0.00,,,0.00,WUHU216HW,2013-06-21 06:57:00,
2013-06-21 02:02:00,80.3,48.4,29.82,SSE,158,15.4,15.4,33,0.00,,,0.00,WUHU216HW,2013-06-21 07:02:00,
2013-06-21 02:07:00,79.9,48.2,29.82,SSE,158,18.6,18.6,33,0.00,,,0.00,WUHU216HW,2013-06-21 07:07:00,
2013-06-21 02:12:00,79.9,48.2,29.82,South,180,8.3,18.6,33,0.00,,,0.00,WUHU216HW,2013-06-21 07:12:00,
2013-06-21 02:17:00,79.7,47.2,29.81,SSW,203,16.6,16.6,32,0.00,,,0.00,WUHU216HW,2013-06-21 07:17:00,
2013-06-21 02:22:00,79.6,47.0,29.81,SSE,158,13.9,16.6,32,0.00,,,0.00,WUHU216HW,2013-06-21 07:22:00,
2013-06-21 02:27:00,79.4,46.9,29.81,South,180,12.1,15.9,32,0.00,,,0.00,WUHU216HW,2013-06-21 07:27:00,
2013-06-21 02:32:00,79.4,46.9,29.81,SE,135,14.1,15.9,32,0.00,,,0.00,WUHU216HW,2013-06-21 07:32:00,
2013-06-21 02:37:00,79.2,46.7,29.82,SSW,203,10.5,15.7,32,0.00,,,0.00,WUHU216HW,2013-06-21 07:37:00,
2013-06-21 02:42:00,79.2,46.7,29.82,South,180,11.2,17.2,32,0.00,,,0.00,WUHU216HW,2013-06-21 07:42:00,
2013-06-21 02:47:00,79.0,46.5,29.82,SSE,158,6.0,18.6,32,0.00,,,0.00,WUHU216HW,2013-06-21 07:47:00,
2013-06-21 02:52:00,79.0,45.7,29.82,SSW,203,9.4,18.6,31,0.00,,,0.00,WUHU216HW,2013-06-21 07:52:00,
2013-06-21 02:57:00,78.8,45.6,29.81,SE,135,9.2,15.0,31,0.00,,,0.00,WUHU216HW,2013-06-21 07:57:00,
2013-06-21 03:02:00,78.8,45.6,29.81,SSE,158,9.8,15.0,31,0.00,,,0.00,WUHU216HW,2013-06-21 08:02:00,
2013-06-21 03:07:00,78.8,45.6,29.81,SSE,158,12.1,17.7,31,0.00,,,0.00,WUHU216HW,2013-06-21 08:07:00,
2013-06-21 03:12:00,78.7,45.5,29.80,SSW,203,11.0,17.7,31,0.00,,,0.00,WUHU216HW,2013-06-21 08:12:00,
2013-06-21 03:17:00,78.5,45.3,29.80,South,180,11.6,14.8,31,0.00,,,0.00,WUHU216HW,2013-06-21 08:17:00,
2013-06-21 03:22:00,78.5,45.3,29.80,SSW,203,7.2,15.9,31,0.00,,,0.00,WUHU216HW,2013-06-21 08:22:00,
2013-06-21 03:27:00,78.3,45.2,29.79,SSW,203,13.9,15.9,31,0.00,,,0.00,WUHU216HW,2013-06-21 08:27:00,
2013-06-21 03:32:00,78.1,45.0,29.79,South,180,12.3,15.4,31,0.00,,,0.00,WUHU216HW,2013-06-21 08:32:00,
2013-06-21 03:37:00,78.1,45.0,29.79,SW,225,14.8,15.4,31,0.00,,,0.00,WUHU216HW,2013-06-21 08:37:00,
2013-06-21 03:42:00,78.1,45.0,29.79,ESE,113,7.4,14.8,31,0.00,,,0.00,WUHU216HW,2013-06-21 08:42:00,
2013-06-21 03:48:00,77.9,44.8,29.79,SSW,203,15.4,15.4,31,0.00,,,0.00,WUHU216HW,2013-06-21 08:48:00,
2013-06-21 03:53:00,77.9,44.8,29.79,South,180,11.9,15.4,31,0.00,,,0.00,WUHU216HW,2013-06-21 08:53:00,
2013-06-21 03:58:00,77.8,44.7,29.79,SSW,203,10.5,15.0,31,0.00,,,0.00,WUHU216HW,2013-06-21 08:58:00,
2013-06-21 04:03:00,77.8,44.7,29.79,South,180,18.6,18.6,31,0.00,,,0.00,WUHU216HW,2013-06-21 09:03:00,
2013-06-21 04:08:00,77.8,44.7,29.79,South,180,9.6,22.4,31,0.00,,,0.00,WUHU216HW,2013-06-21 09:08:00,
2013-06-21 04:13:00,77.6,44.6,29.78,South,180,11.9,22.4,31,0.00,,,0.00,WUHU216HW,2013-06-21 09:13:00,
2013-06-21 04:18:00,77.6,45.4,29.78,South,180,10.5,18.3,32,0.00,,,0.00,WUHU216HW,2013-06-21 09:18:00,
2013-06-21 04:23:00,77.4,45.2,29.78,South,180,8.1,18.3,32,0.00,,,0.00,WUHU216HW,2013-06-21 09:23:00,
2013-06-21 04:28:00,77.4,45.2,29.78,SSE,158,17.4,17.4,32,0.00,,,0.00,WUHU216HW,2013-06-21 09:28:00,
2013-06-21 04:33:00,77.8,45.5,29.78,South,180,10.1,19.0,32,0.00,,,0.00,WUHU216HW,2013-06-21 09:33:00,
2013-06-21 04:38:00,77.6,45.4,29.79,South,180,7.6,19.0,32,0.00,,,0.00,WUHU216HW,2013-06-21 09:38:00,
2013-06-21 04:43:00,77.6,45.4,29.79,SSE,158,10.7,15.7,32,0.00,,,0.00,WUHU216HW,2013-06-21 09:43:00,
2013-06-21 04:48:00,77.6,46.1,29.79,South,180,9.8,18.6,33,0.00,,,0.00,WUHU216HW,2013-06-21 09:48:00,
2013-06-21 04:53:00,77.4,46.0,29.80,South,180,13.0,18.6,33,0.00,,,0.00,WUHU216HW,2013-06-21 09:53:00,
2013-06-21 04:58:00,77.4,46.0,29.80,South,180,14.1,16.1,33,0.00,,,0.00,WUHU216HW,2013-06-21 09:58:00,
2013-06-21 05:03:00,77.4,46.0,29.80,South,180,11.6,16.1,33,0.00,,,0.00,WUHU216HW,2013-06-21 10:03:00,
2013-06-21 05:08:00,77.2,45.8,29.81,SSE,158,12.1,15.0,33,0.00,,,0.00,WUHU216HW,2013-06-21 10:08:00,
2013-06-21 05:13:00,77.0,45.6,29.81,SSW,203,8.7,13.2,33,0.00,,,0.00,WUHU216HW,2013-06-21 10:13:00,
2013-06-21 05:18:00,77.2,45.8,29.80,South,180,14.3,14.3,33,0.00,,,0.00,WUHU216HW,2013-06-21 10:18:00,
2013-06-21 05:23:00,77.0,45.6,29.81,SSW,203,10.3,14.3,33,0.00,,,0.00,WUHU216HW,2013-06-21 10:23:00,
2013-06-21 05:28:00,77.0,45.6,29.81,SSW,203,10.3,10.3,33,0.00,,,0.00,WUHU216HW,2013-06-21 10:28:00,
2013-06-21 05:52:00,77.0,45.6,29.80,SSW,203,9.2,9.2,33,0.00,,,0.00,WUHU216HW,2013-06-21 10:52:00,
2013-06-21 05:57:00,76.9,45.5,29.80,South,180,8.9,15.7,33,0.00,,,0.00,WUHU216HW,2013-06-21 10:57:00,
2013-06-21 06:02:00,77.0,46.5,29.80,South,180,7.6,15.7,34,0.00,,,0.00,WUHU216HW,2013-06-21 11:02:00,
2013-06-21 06:07:00,76.9,46.3,29.80,South,180,15.0,15.0,34,0.00,,,0.00,WUHU216HW,2013-06-21 11:07:00,
2013-06-21 06:12:00,76.9,46.3,29.80,SW,225,10.7,15.0,34,0.00,,,0.00,WUHU216HW,2013-06-21 11:12:00,
2013-06-21 06:17:00,76.9,46.3,29.80,South,180,8.7,14.5,34,0.00,,,0.00,WUHU216HW,2013-06-21 11:17:00,
2013-06-21 06:22:00,76.7,46.1,29.81,South,180,10.3,14.5,34,0.00,,,0.00,WUHU216HW,2013-06-21 11:22:00,
2013-06-21 06:27:00,76.7,46.1,29.81,South,180,5.4,11.6,34,0.00,,,0.00,WUHU216HW,2013-06-21 11:27:00,
2013-06-21 06:32:00,76.7,46.1,29.82,SSE,158,2.9,10.1,34,0.00,,,0.00,WUHU216HW,2013-06-21 11:32:00,
2013-06-21 06:37:00,76.7,46.1,29.82,South,180,10.1,11.4,34,0.00,,,0.00,WUHU216HW,2013-06-21 11:37:00,
2013-06-21 06:42:00,76.9,46.3,29.82,South,180,6.3,11.4,34,0.00,,,0.00,WUHU216HW,2013-06-21 11:42:00,
2013-06-21 06:47:00,76.9,46.3,29.82,SSW,203,4.0,11.2,34,0.00,,,0.00,WUHU216HW,2013-06-21 11:47:00,
2013-06-21 06:52:00,77.0,46.5,29.82,SSE,158,6.7,9.8,34,0.00,,,0.00,WUHU216HW,2013-06-21 11:52:00,
2013-06-21 06:57:00,77.0,46.5,29.82,South,180,7.2,11.4,34,0.00,,,0.00,WUHU216HW,2013-06-21 11:57:00,
2013-06-21 07:03:00,77.2,47.4,29.82,SSW,203,5.4,11.4,35,0.00,,,0.00,WUHU216HW,2013-06-21 12:03:00,
2013-06-21 07:08:00,77.2,47.4,29.82,SE,135,8.1,11.0,35,0.00,,,0.00,WUHU216HW,2013-06-21 12:08:00,
2013-06-21 07:13:00,77.4,47.4,29.82,South,180,8.5,11.0,35,0.00,,,0.00,WUHU216HW,2013-06-21 12:13:00,
2013-06-21 07:18:00,77.4,47.4,29.82,SSE,158,6.5,10.5,35,0.00,,,0.00,WUHU216HW,2013-06-21 12:18:00,
2013-06-21 07:23:00,77.4,47.4,29.82,SSW,203,4.7,10.5,35,0.00,,,0.00,WUHU216HW,2013-06-21 12:23:00,
2013-06-21 07:28:00,77.4,47.4,29.82,SSW,203,4.7,9.8,35,0.00,,,0.00,WUHU216HW,2013-06-21 12:28:00,
2013-06-21 07:49:00,77.8,49.3,29.82,South,180,12.3,12.3,37,0.00,,,0.00,WUHU216HW,2013-06-21 12:49:00,
2013-06-21 07:54:00,77.8,49.3,29.81,SE,135,12.1,12.3,37,0.00,,,0.00,WUHU216HW,2013-06-21 12:54:00,
2013-06-21 07:59:00,77.8,49.3,29.81,SE,135,11.9,13.0,37,0.00,,,0.00,WUHU216HW,2013-06-21 12:59:00,
2013-06-21 08:04:00,77.9,49.4,29.81,South,180,10.7,18.8,37,0.00,,,0.00,WUHU216HW,2013-06-21 13:04:00,
2013-06-21 08:09:00,77.9,49.4,29.81,SSW,203,6.7,18.8,37,0.00,,,0.00,WUHU216HW,2013-06-21 13:09:00,
2013-06-21 08:14:00,78.3,50.6,29.81,East,90,7.6,14.3,38,0.00,,,0.00,WUHU216HW,2013-06-21 13:14:00,
2013-06-21 08:19:00,78.1,48.9,29.81,SSE,158,11.4,12.1,36,0.00,,,0.00,WUHU216HW,2013-06-21 13:19:00,
2013-06-21 08:24:00,78.1,48.9,29.81,SSE,158,11.4,11.4,36,0.00,,,0.00,WUHU216HW,2013-06-21 13:24:00,
2013-06-21 08:45:00,79.6,51.7,29.81,South,180,7.8,7.8,38,0.00,,,0.00,WUHU216HW,2013-06-21 13:45:00,
2013-06-21 08:50:00,79.9,52.7,29.81,SSW,203,8.7,8.7,39,0.00,,,0.00,WUHU216HW,2013-06-21 13:50:00,
2013-06-21 08:55:00,80.1,53.7,29.81,SSW,203,10.1,14.3,40,0.00,,,0.00,WUHU216HW,2013-06-21 13:55:00,
2013-06-21 09:00:00,80.5,54.0,29.82,SSE,158,11.0,14.3,40,0.00,,,0.00,WUHU216HW,2013-06-21 14:00:00,
2013-06-21 09:05:00,80.6,55.5,29.82,SSW,203,12.1,12.1,42,0.00,,,0.00,WUHU216HW,2013-06-21 14:05:00,
2013-06-21 09:10:00,81.0,55.1,29.82,SSE,158,9.6,12.1,41,0.00,,,0.00,WUHU216HW,2013-06-21 14:10:00,
2013-06-21 09:15:00,81.4,56.7,29.82,South,180,5.1,11.9,43,0.00,,,0.00,WUHU216HW,2013-06-21 14:15:00,
2013-06-21 09:20:00,81.4,56.7,29.82,SSW,203,6.3,11.9,43,0.00,,,0.00,WUHU216HW,2013-06-21 14:20:00,
2013-06-21 09:25:00,81.7,57.0,29.82,SSW,203,4.9,9.2,43,0.00,,,0.00,WUHU216HW,2013-06-21 14:25:00,
2013-06-21 09:30:00,82.1,57.3,29.82,SSE,158,6.9,9.2,43,0.00,,,0.00,WUHU216HW,2013-06-21 14:30:00,
2013-06-21 09:35:00,82.4,58.9,29.82,SSW,203,7.4,8.5,45,0.00,,,0.00,WUHU216HW,2013-06-21 14:35:00,
2013-06-21 09:40:00,82.6,60.3,29.82,SSE,158,3.6,11.6,47,0.00,,,0.00,WUHU216HW,2013-06-21 14:40:00,
2013-06-21 09:45:00,82.4,59.5,29.82,South,180,8.9,11.6,46,0.00,,,0.00,WUHU216HW,2013-06-21 14:45:00,
2013-06-21 09:50:00,82.1,59.1,29.83,SW,225,6.9,11.4,46,0.00,,,0.00,WUHU216HW,2013-06-21 14:50:00,
2013-06-21 09:55:00,82.3,59.3,29.83,SSW,203,4.9,11.4,46,0.00,,,0.00,WUHU216HW,2013-06-21 14:55:00,
2013-06-21 10:01:00,82.4,59.5,29.83,South,180,10.3,10.3,46,0.00,,,0.00,WUHU216HW,2013-06-21 15:01:00,
2013-06-21 10:02:00,82.4,59.5,29.84,South,180,2.7,2.7,46,0.00,,,0.00,WUHU216HW,2013-06-21 15:02:00,
2013-06-21 10:06:00,82.4,59.5,29.84,South,180,2.7,10.3,46,0.00,,,0.00,WUHU216HW,2013-06-21 15:06:00,
2013-06-21 10:11:00,82.4,59.5,29.84,South,180,2.7,2.7,46,0.00,,,0.00,WUHU216HW,2013-06-21 15:11:00,
2013-06-21 10:32:00,84.6,64.1,29.83,South,180,5.6,5.6,50,0.00,,,0.00,WUHU216HW,2013-06-21 15:32:00,
2013-06-21 10:38:00,84.8,64.2,29.83,SSE,158,6.3,7.6,50,0.00,,,0.00,WUHU216HW,2013-06-21 15:38:00,
2013-06-21 10:43:00,85.3,65.3,29.83,SE,135,4.0,9.8,51,0.00,,,0.00,WUHU216HW,2013-06-21 15:43:00,
2013-06-21 10:48:00,84.8,64.7,29.84,SSW,203,6.3,11.2,51,0.00,,,0.00,WUHU216HW,2013-06-21 15:48:00,
2013-06-21 10:53:00,85.1,65.1,29.84,SSW,203,8.7,11.2,51,0.00,,,0.00,WUHU216HW,2013-06-21 15:53:00,
2013-06-21 10:58:00,85.7,66.1,29.84,SSW,203,4.7,9.6,52,0.00,,,0.00,WUHU216HW,2013-06-21 15:58:00,
2013-06-21 11:03:00,85.3,65.3,29.84,South,180,5.1,9.6,51,0.00,,,0.00,WUHU216HW,2013-06-21 16:03:00,
2013-06-21 11:08:00,85.3,65.3,29.84,South,180,6.9,8.1,51,0.00,,,0.00,WUHU216HW,2013-06-21 16:08:00,
2013-06-21 11:13:00,85.5,65.3,29.84,SSE,158,7.4,8.1,51,0.00,,,0.00,WUHU216HW,2013-06-21 16:13:00,
2013-06-21 11:18:00,85.0,64.9,29.84,South,180,5.4,9.2,51,0.00,,,0.00,WUHU216HW,2013-06-21 16:18:00,
2013-06-21 11:23:00,85.1,65.1,29.84,South,180,9.8,9.8,51,0.00,,,0.00,WUHU216HW,2013-06-21 16:23:00,
2013-06-21 11:28:00,85.0,64.9,29.84,SSE,158,7.6,9.8,51,0.00,,,0.00,WUHU216HW,2013-06-21 16:28:00,
2013-06-21 11:33:00,85.0,64.9,29.84,SSW,203,6.7,10.5,51,0.00,,,0.00,WUHU216HW,2013-06-21 16:33:00,
2013-06-21 11:38:00,85.0,65.4,29.84,SE,135,9.8,10.5,52,0.00,,,0.00,WUHU216HW,2013-06-21 16:38:00,
2013-06-21 11:43:00,84.8,64.7,29.84,SSE,158,3.4,9.8,51,0.00,,,0.00,WUHU216HW,2013-06-21 16:43:00,
2013-06-21 11:48:00,84.8,65.3,29.84,South,180,7.6,8.7,52,0.00,,,0.00,WUHU216HW,2013-06-21 16:48:00,
2013-06-21 11:54:00,84.6,65.1,29.84,South,180,5.4,10.1,52,0.00,,,0.00,WUHU216HW,2013-06-21 16:54:00,
2013-06-21 11:59:00,84.8,64.7,29.84,South,180,7.6,10.1,51,0.00,,,0.00,WUHU216HW,2013-06-21 16:59:00,
2013-06-21 12:04:00,85.0,65.4,29.84,South,180,4.0,8.7,52,0.00,,,0.00,WUHU216HW,2013-06-21 17:04:00,
2013-06-21 12:09:00,85.3,65.3,29.83,South,180,9.6,9.6,51,0.00,,,0.00,WUHU216HW,2013-06-21 17:09:00,
2013-06-21 12:14:00,86.4,66.2,29.84,SSE,158,6.9,9.6,51,0.00,,,0.00,WUHU216HW,2013-06-21 17:14:00,
2013-06-21 12:19:00,87.1,65.7,29.83,SSE,158,5.4,9.8,49,0.00,,,0.00,WUHU216HW,2013-06-21 17:19:00,
2013-06-21 12:24:00,88.2,67.3,29.83,SSE,158,6.3,9.8,50,0.00,,,0.00,WUHU216HW,2013-06-21 17:24:00,
2013-06-21 12:29:00,88.6,69.2,29.83,SSE,158,8.5,10.3,53,0.00,,,0.00,WUHU216HW,2013-06-21 17:29:00,
2013-06-21 12:34:00,88.9,69.0,29.83,SSE,158,8.3,12.3,52,0.00,,,0.00,WUHU216HW,2013-06-21 17:34:00,
2013-06-21 12:39:00,89.1,69.2,29.83,South,180,10.5,12.8,52,0.00,,,0.00,WUHU216HW,2013-06-21 17:39:00,
2013-06-21 12:44:00,89.1,69.2,29.83,SE,135,8.7,12.8,52,0.00,,,0.00,WUHU216HW,2013-06-21 17:44:00,
2013-06-21 12:46:00,89.3,68.8,29.82,South,180,16.3,16.3,51,0.00,,,0.00,WUHU216HW,2013-06-21 17:46:00,
2013-06-21 12:47:00,89.3,68.8,29.83,SSE,158,9.2,16.3,51,0.00,,,0.00,WUHU216HW,2013-06-21 17:47:00,
2013-06-21 12:52:00,89.6,69.1,29.82,SSE,158,6.5,16.3,51,0.00,,,0.00,WUHU216HW,2013-06-21 17:52:00,
2013-06-21 12:57:00,90.0,69.5,29.82,SSE,158,4.0,12.1,51,0.00,,,0.00,WUHU216HW,2013-06-21 17:57:00,
2013-06-21 13:02:00,90.7,69.0,29.82,South,180,7.6,15.7,49,0.00,,,0.00,WUHU216HW,2013-06-21 18:02:00,
2013-06-21 13:07:00,91.1,69.8,29.82,ESE,113,9.2,15.7,50,0.00,,,0.00,WUHU216HW,2013-06-21 18:07:00,
2013-06-21 13:12:00,91.4,69.0,29.81,SSE,158,12.1,15.2,48,0.00,,,0.00,WUHU216HW,2013-06-21 18:12:00,
2013-06-21 13:18:00,91.4,69.6,29.81,SW,225,11.2,15.2,49,0.00,,,0.00,WUHU216HW,2013-06-21 18:18:00,
2013-06-21 13:23:00,91.4,70.2,29.81,South,180,11.6,14.8,50,0.00,,,0.00,WUHU216HW,2013-06-21 18:23:00,
2013-06-21 13:24:00,91.8,69.2,29.81,South,180,12.3,14.8,48,0.00,,,0.00,WUHU216HW,2013-06-21 18:24:00,
2013-06-21 13:29:00,91.6,69.8,29.81,SE,135,13.4,14.3,49,0.00,,,0.00,WUHU216HW,2013-06-21 18:29:00,
2013-06-21 13:34:00,91.6,69.8,29.81,East,90,15.4,15.4,49,0.00,,,0.00,WUHU216HW,2013-06-21 18:34:00,
2013-06-21 13:39:00,91.8,69.8,29.81,South,180,12.8,15.4,49,0.00,,,0.00,WUHU216HW,2013-06-21 18:39:00,
2013-06-21 13:45:00,91.3,70.0,29.81,South,180,6.3,12.8,50,0.00,,,0.00,WUHU216HW,2013-06-21 18:45:00,
2013-06-21 13:46:00,91.3,70.0,29.81,South,180,11.9,12.8,50,0.00,,,0.00,WUHU216HW,2013-06-21 18:46:00,
2013-06-21 13:51:00,91.1,69.8,29.81,SSW,203,12.1,19.2,50,0.00,,,0.00,WUHU216HW,2013-06-21 18:51:00,
2013-06-21 13:56:00,91.4,70.2,29.81,SSE,158,11.0,19.2,50,0.00,,,0.00,WUHU216HW,2013-06-21 18:56:00,
2013-06-21 14:01:00,92.3,71.0,29.81,South,180,11.2,14.3,50,0.00,,,0.00,WUHU216HW,2013-06-21 19:01:00,
2013-06-21 14:06:00,92.9,70.2,29.81,SSE,158,7.6,14.3,48,0.00,,,0.00,WUHU216HW,2013-06-21 19:06:00,
2013-06-21 14:12:00,93.1,69.8,29.81,East,90,11.2,17.2,47,0.00,,,0.00,WUHU216HW,2013-06-21 19:12:00,
2013-06-21 14:17:00,91.8,69.8,29.80,South,180,5.8,14.3,49,0.00,,,0.00,WUHU216HW,2013-06-21 19:17:00,
2013-06-21 14:20:00,91.4,69.6,29.80,SSE,158,12.8,14.3,49,0.00,,,0.00,WUHU216HW,2013-06-21 19:20:00,
2013-06-21 14:25:00,91.1,69.2,29.80,SE,135,10.3,12.8,49,0.00,,,0.00,WUHU216HW,2013-06-21 19:25:00,
2013-06-21 14:30:00,90.7,69.6,29.80,SE,135,8.3,13.4,50,0.00,,,0.00,WUHU216HW,2013-06-21 19:30:00,
2013-06-21 14:35:00,90.7,70.1,29.80,SE,135,5.1,13.4,51,0.00,,,0.00,WUHU216HW,2013-06-21 19:35:00,
2013-06-21 14:40:00,90.7,70.1,29.81,SSE,158,7.2,10.5,51,0.00,,,0.00,WUHU216HW,2013-06-21 19:40:00,
2013-06-21 14:42:00,90.7,69.6,29.81,SSE,158,11.4,11.4,50,0.00,,,0.00,WUHU216HW,2013-06-21 19:42:00,
2013-06-21 14:43:00,90.7,70.1,29.80,SE,135,8.7,11.4,51,0.00,,,0.00,WUHU216HW,2013-06-21 19:43:00,
2013-06-21 14:48:00,90.7,70.1,29.80,SSE,158,7.4,11.4,51,0.00,,,0.00,WUHU216HW,2013-06-21 19:48:00,
2013-06-21 14:53:00,91.1,69.2,29.80,SSE,158,11.4,11.4,49,0.00,,,0.00,WUHU216HW,2013-06-21 19:53:00,
2013-06-21 14:58:00,90.9,69.8,29.80,SSE,158,8.7,11.4,50,0.00,,,0.00,WUHU216HW,2013-06-21 19:58:00,
2013-06-21 15:03:00,91.3,70.0,29.80,South,180,6.0,12.8,50,0.00,,,0.00,WUHU216HW,2013-06-21 20:03:00,
2013-06-21 15:04:00,91.3,70.0,29.80,SSE,158,10.3,12.8,50,0.00,,,0.00,WUHU216HW,2013-06-21 20:04:00,
2013-06-21 15:09:00,91.4,70.2,29.80,SSE,158,7.2,10.3,50,0.00,,,0.00,WUHU216HW,2013-06-21 20:09:00,
2013-06-21 15:11:00,91.6,70.9,29.80,South,180,7.6,10.3,51,0.00,,,0.00,WUHU216HW,2013-06-21 20:11:00,
2013-06-21 15:16:00,92.2,70.8,29.80,SSE,158,7.6,9.2,50,0.00,,,0.00,WUHU216HW,2013-06-21 20:16:00,
2013-06-21 15:21:00,92.5,70.6,29.80,South,180,7.6,9.2,49,0.00,,,0.00,WUHU216HW,2013-06-21 20:21:00,
2013-06-21 15:26:00,92.7,70.7,29.79,SSE,158,4.3,9.2,49,0.00,,,0.00,WUHU216HW,2013-06-21 20:26:00,
2013-06-21 15:31:00,93.2,71.2,29.79,South,180,8.5,9.8,49,0.00,,,0.00,WUHU216HW,2013-06-21 20:31:00,
2013-06-21 15:36:00,94.5,71.7,29.79,SSE,158,7.4,9.8,48,0.00,,,0.00,WUHU216HW,2013-06-21 20:36:00,
2013-06-21 15:41:00,95.0,71.7,29.79,SSW,203,10.7,10.7,47,0.00,,,0.00,WUHU216HW,2013-06-21 20:41:00,
2013-06-21 15:46:00,95.2,71.8,29.79,South,180,9.4,10.7,47,0.00,,,0.00,WUHU216HW,2013-06-21 20:46:00,
2013-06-21 15:51:00,94.9,71.5,29.79,SSE,158,10.5,11.4,47,0.00,,,0.00,WUHU216HW,2013-06-21 20:51:00,
2013-06-21 15:56:00,95.4,71.9,29.78,South,180,8.5,10.5,47,0.00,,,0.00,WUHU216HW,2013-06-21 20:56:00,
2013-06-21 16:01:00,95.8,72.3,29.78,South,180,5.6,10.5,47,0.00,,,0.00,WUHU216HW,2013-06-21 21:01:00,
2013-06-21 16:04:00,96.1,72.6,29.78,South,180,9.4,10.5,47,0.00,,,0.00,WUHU216HW,2013-06-21 21:04:00,
2013-06-21 16:09:00,96.5,71.6,29.78,SE,135,14.3,14.3,45,0.00,,,0.00,WUHU216HW,2013-06-21 21:09:00,
2013-06-21 16:14:00,96.8,71.3,29.77,SSE,158,11.0,14.3,44,0.00,,,0.00,WUHU216HW,2013-06-21 21:14:00,
2013-06-21 16:19:00,97.0,71.4,29.77,SSE,158,7.4,13.0,44,0.00,,,0.00,WUHU216HW,2013-06-21 21:19:00,
2013-06-21 16:24:00,97.7,72.1,29.77,South,180,11.6,15.0,44,0.00,,,0.00,WUHU216HW,2013-06-21 21:24:00,
2013-06-21 16:29:00,97.6,70.6,29.77,SE,135,12.5,18.3,42,0.00,,,0.00,WUHU216HW,2013-06-21 21:29:00,
2013-06-21 16:34:00,97.9,71.6,29.77,SSE,158,8.7,18.3,43,0.00,,,0.00,WUHU216HW,2013-06-21 21:34:00,
2013-06-21 16:39:00,98.3,71.2,29.76,South,180,11.2,17.0,42,0.00,,,0.00,WUHU216HW,2013-06-21 21:39:00,
2013-06-21 16:45:00,98.3,71.2,29.76,SSW,203,9.8,17.9,42,0.00,,,0.00,WUHU216HW,2013-06-21 21:45:00,
2013-06-21 16:50:00,98.3,71.2,29.76,SE,135,13.4,17.9,42,0.00,,,0.00,WUHU216HW,2013-06-21 21:50:00,
2013-06-21 16:55:00,98.3,70.6,29.76,SE,135,14.3,15.7,41,0.00,,,0.00,WUHU216HW,2013-06-21 21:55:00,
2013-06-21 17:00:00,98.3,70.6,29.76,South,180,9.2,15.4,41,0.00,,,0.00,WUHU216HW,2013-06-21 22:00:00,
2013-06-21 17:05:00,98.3,69.8,29.76,SSW,203,14.5,15.4,40,0.00,,,0.00,WUHU216HW,2013-06-21 22:05:00,
2013-06-21 17:10:00,98.3,69.0,29.76,South,180,13.9,15.9,39,0.00,,,0.00,WUHU216HW,2013-06-21 22:10:00,
2013-06-21 17:15:00,98.6,69.4,29.76,South,180,13.4,15.9,39,0.00,,,0.00,WUHU216HW,2013-06-21 22:15:00,
2013-06-21 17:20:00,98.5,70.0,29.76,South,180,10.1,15.0,40,0.00,,,0.00,WUHU216HW,2013-06-21 22:20:00,
2013-06-21 17:25:00,98.3,70.6,29.76,SSE,158,13.6,16.6,41,0.00,,,0.00,WUHU216HW,2013-06-21 22:25:00,
2013-06-21 17:30:00,98.1,71.0,29.76,SSW,203,16.6,16.6,42,0.00,,,0.00,WUHU216HW,2013-06-21 22:30:00,
2013-06-21 17:35:00,97.9,70.2,29.76,South,180,17.9,17.9,41,0.00,,,0.00,WUHU216HW,2013-06-21 22:35:00,
2013-06-21 17:40:00,97.9,71.6,29.76,SSE,158,9.2,17.9,43,0.00,,,0.00,WUHU216HW,2013-06-21 22:40:00,
2013-06-21 17:45:00,97.9,70.9,29.75,SSE,158,12.8,12.8,42,0.00,,,0.00,WUHU216HW,2013-06-21 22:45:00,
2013-06-21 17:50:00,97.7,70.0,29.75,South,180,11.9,17.0,41,0.00,,,0.00,WUHU216HW,2013-06-21 22:50:00,
2013-06-21 17:55:00,97.6,70.6,29.75,South,180,13.2,17.0,42,0.00,,,0.00,WUHU216HW,2013-06-21 22:55:00,
2013-06-21 18:00:00,97.6,70.6,29.75,South,180,10.5,16.3,42,0.00,,,0.00,WUHU216HW,2013-06-21 23:00:00,
2013-06-21 18:05:00,97.4,71.7,29.75,SSE,158,12.1,16.3,44,0.00,,,0.00,WUHU216HW,2013-06-21 23:05:00,
2013-06-21 18:10:00,97.2,71.6,29.76,SSE,158,11.0,12.5,44,0.00,,,0.00,WUHU216HW,2013-06-21 23:10:00,
2013-06-21 18:15:00,96.8,71.3,29.76,SSE,158,10.7,13.2,44,0.00,,,0.00,WUHU216HW,2013-06-21 23:15:00,
2013-06-21 18:20:00,96.7,72.5,29.76,SE,135,8.9,13.4,46,0.00,,,0.00,WUHU216HW,2013-06-21 23:20:00,
2013-06-21 18:25:00,96.7,71.7,29.76,SSE,158,8.5,17.2,45,0.00,,,0.00,WUHU216HW,2013-06-21 23:25:00,
2013-06-21 18:30:00,96.5,72.3,29.76,SSE,158,9.6,17.2,46,0.00,,,0.00,WUHU216HW,2013-06-21 23:30:00,
2013-06-21 18:35:00,96.1,70.6,29.76,SSE,158,10.5,15.2,44,0.00,,,0.00,WUHU216HW,2013-06-21 23:35:00,
2013-06-21 18:40:00,95.9,70.5,29.76,South,180,15.9,15.9,44,0.00,,,0.00,WUHU216HW,2013-06-21 23:40:00,
2013-06-21 18:45:00,95.8,71.7,29.76,South,180,11.4,15.9,46,0.00,,,0.00,WUHU216HW,2013-06-21 23:45:00,
2013-06-21 18:51:00,95.8,72.3,29.77,SSE,158,7.8,15.0,47,0.00,,,0.00,WUHU216HW,2013-06-21 23:51:00,
2013-06-21 18:56:00,95.2,71.8,29.76,SE,135,13.2,17.2,47,0.00,,,0.00,WUHU216HW,2013-06-21 23:56:00,
2013-06-21 19:01:00,94.7,71.9,29.77,SSE,158,11.9,17.2,48,0.00,,,0.00,WUHU216HW,2013-06-22 00:01:00,
2013-06-21 19:06:00,94.3,71.6,29.76,SSE,158,9.8,15.7,48,0.00,,,0.00,WUHU216HW,2013-06-22 00:06:00,
2013-06-21 19:11:00,94.1,71.4,29.76,South,180,9.2,15.7,48,0.00,,,0.00,WUHU216HW,2013-06-22 00:11:00,
2013-06-21 19:16:00,94.0,71.9,29.76,South,180,12.3,15.0,49,0.00,,,0.00,WUHU216HW,2013-06-22 00:16:00,
2013-06-21 19:21:00,93.4,71.4,29.77,South,180,15.0,16.3,49,0.00,,,0.00,WUHU216HW,2013-06-22 00:21:00,
2013-06-21 19:26:00,92.9,71.5,29.77,ESE,113,8.5,16.3,50,0.00,,,0.00,WUHU216HW,2013-06-22 00:26:00,
2013-06-21 19:31:00,92.2,70.8,29.77,SSW,203,9.2,14.3,50,0.00,,,0.00,WUHU216HW,2013-06-22 00:31:00,
2013-06-21 19:36:00,91.6,70.9,29.77,SSW,203,6.0,12.8,51,0.00,,,0.00,WUHU216HW,2013-06-22 00:36:00,
2013-06-21 19:41:00,91.4,70.7,29.77,SSW,203,11.2,12.8,51,0.00,,,0.00,WUHU216HW,2013-06-22 00:41:00,
2013-06-21 19:46:00,91.4,70.7,29.77,SE,135,12.1,12.1,51,0.00,,,0.00,WUHU216HW,2013-06-22 00:46:00,
2013-06-21 19:51:00,91.3,70.6,29.77,South,180,8.7,12.1,51,0.00,,,0.00,WUHU216HW,2013-06-22 00:51:00,
2013-06-21 19:56:00,90.9,70.3,29.77,South,180,10.7,11.9,51,0.00,,,0.00,WUHU216HW,2013-06-22 00:56:00,
2013-06-21 20:01:00,90.7,70.1,29.77,SSW,203,6.9,11.6,51,0.00,,,0.00,WUHU216HW,2013-06-22 01:01:00,
2013-06-21 20:06:00,90.5,69.9,29.77,SSE,158,6.7,13.9,51,0.00,,,0.00,WUHU216HW,2013-06-22 01:06:00,
2013-06-21 20:11:00,90.4,70.3,29.77,SSE,158,10.3,13.9,52,0.00,,,0.00,WUHU216HW,2013-06-22 01:11:00,
2013-06-21 20:16:00,90.0,70.0,29.78,WSW,248,10.5,10.5,52,0.00,,,0.00,WUHU216HW,2013-06-22 01:16:00,
2013-06-21 20:21:00,89.8,69.9,29.78,South,180,7.6,12.1,52,0.00,,,0.00,WUHU216HW,2013-06-22 01:21:00,
2013-06-21 20:26:00,89.8,69.9,29.78,South,180,9.4,12.1,52,0.00,,,0.00,WUHU216HW,2013-06-22 01:26:00,
2013-06-21 20:31:00,89.5,69.5,29.78,South,180,6.7,11.2,52,0.00,,,0.00,WUHU216HW,2013-06-22 01:31:00,
2013-06-21 20:36:00,89.3,69.3,29.78,SSE,158,10.3,12.8,52,0.00,,,0.00,WUHU216HW,2013-06-22 01:36:00,
2013-06-21 20:41:00,89.3,69.3,29.78,South,180,8.7,12.8,52,0.00,,,0.00,WUHU216HW,2013-06-22 01:41:00,
2013-06-21 20:46:00,89.1,69.2,29.79,South,180,6.7,12.5,52,0.00,,,0.00,WUHU216HW,2013-06-22 01:46:00,
2013-06-21 20:51:00,88.9,69.0,29.79,South,180,12.3,12.3,52,0.00,,,0.00,WUHU216HW,2013-06-22 01:51:00,
2013-06-21 20:56:00,88.6,68.7,29.79,SSW,203,9.2,13.9,52,0.00,,,0.00,WUHU216HW,2013-06-22 01:56:00,
2013-06-21 21:01:00,88.4,68.5,29.79,SSW,203,7.4,13.9,52,0.00,,,0.00,WUHU216HW,2013-06-22 02:01:00,
2013-06-21 21:06:00,88.2,68.4,29.80,South,180,12.1,12.1,52,0.00,,,0.00,WUHU216HW,2013-06-22 02:06:00,
2013-06-21 21:11:00,88.0,68.2,29.80,South,180,11.2,12.1,52,0.00,,,0.00,WUHU216HW,2013-06-22 02:11:00,
2013-06-21 21:16:00,87.8,68.0,29.80,South,180,9.8,13.4,52,0.00,,,0.00,WUHU216HW,2013-06-22 02:16:00,
2013-06-21 21:21:00,87.7,67.9,29.80,SSW,203,7.6,13.4,52,0.00,,,0.00,WUHU216HW,2013-06-22 02:21:00,
2013-06-21 21:26:00,87.5,67.7,29.80,SSE,158,9.4,14.8,52,0.00,,,0.00,WUHU216HW,2013-06-22 02:26:00,
2013-06-21 21:31:00,87.3,67.5,29.80,South,180,10.5,14.8,52,0.00,,,0.00,WUHU216HW,2013-06-22 02:31:00,
2013-06-21 21:36:00,87.1,67.4,29.80,SSE,158,7.6,12.1,52,0.00,,,0.00,WUHU216HW,2013-06-22 02:36:00,
2013-06-21 21:41:00,86.9,67.2,29.80,South,180,9.6,12.1,52,0.00,,,0.00,WUHU216HW,2013-06-22 02:41:00,
2013-06-21 21:46:00,86.9,67.2,29.80,SE,135,8.3,12.8,52,0.00,,,0.00,WUHU216HW,2013-06-22 02:46:00,
2013-06-21 21:51:00,86.6,66.9,29.80,ESE,113,9.8,12.8,52,0.00,,,0.00,WUHU216HW,2013-06-22 02:51:00,
2013-06-21 21:56:00,86.4,66.7,29.81,South,180,8.1,11.4,52,0.00,,,0.00,WUHU216HW,2013-06-22 02:56:00,
2013-06-21 22:01:00,86.2,66.5,29.81,SSW,203,11.2,11.6,52,0.00,,,0.00,WUHU216HW,2013-06-22 03:01:00,
2013-06-21 22:06:00,86.0,65.9,29.81,South,180,9.2,11.6,51,0.00,,,0.00,WUHU216HW,2013-06-22 03:06:00,
2013-06-21 22:11:00,85.9,65.7,29.81,South,180,15.7,15.7,51,0.00,,,0.00,WUHU216HW,2013-06-22 03:11:00,
2013-06-21 22:16:00,85.5,65.3,29.81,South,180,7.8,15.7,51,0.00,,,0.00,WUHU216HW,2013-06-22 03:16:00,
2013-06-21 22:21:00,85.3,65.3,29.81,SSE,158,9.8,11.0,51,0.00,,,0.00,WUHU216HW,2013-06-22 03:21:00,
2013-06-21 22:27:00,85.1,65.1,29.81,SSE,158,9.2,13.0,51,0.00,,,0.00,WUHU216HW,2013-06-22 03:27:00,
2013-06-21 22:32:00,85.0,64.9,29.81,SE,135,13.0,13.0,51,0.00,,,0.00,WUHU216HW,2013-06-22 03:32:00,
2013-06-21 22:37:00,85.1,65.1,29.81,South,180,9.8,14.5,51,0.00,,,0.00,WUHU216HW,2013-06-22 03:37:00,
2013-06-21 22:42:00,85.0,64.9,29.81,SSE,158,11.9,14.5,51,0.00,,,0.00,WUHU216HW,2013-06-22 03:42:00,
2013-06-21 22:47:00,84.6,64.1,29.81,SE,135,5.8,14.3,50,0.00,,,0.00,WUHU216HW,2013-06-22 03:47:00,
2013-06-21 22:52:00,84.6,64.1,29.81,SSW,203,17.2,17.2,50,0.00,,,0.00,WUHU216HW,2013-06-22 03:52:00,
2013-06-21 22:57:00,84.6,64.1,29.81,SE,135,15.2,17.2,50,0.00,,,0.00,WUHU216HW,2013-06-22 03:57:00,
2013-06-21 23:01:00,84.4,63.3,29.81,South,180,13.4,17.2,49,0.00,,,0.00,WUHU216HW,2013-06-22 04:01:00,
2013-06-21 23:02:00,84.4,63.3,29.81,SSE,158,9.2,15.7,49,0.00,,,0.00,WUHU216HW,2013-06-22 04:02:00,
2013-06-21 23:07:00,84.2,63.1,29.81,South,180,9.2,15.7,49,0.00,,,0.00,WUHU216HW,2013-06-22 04:07:00,
2013-06-21 23:12:00,83.9,62.7,29.80,SSE,158,11.0,14.3,49,0.00,,,0.00,WUHU216HW,2013-06-22 04:12:00,
2013-06-21 23:17:00,83.9,62.1,29.79,SSW,203,16.3,16.3,48,0.00,,,0.00,WUHU216HW,2013-06-22 04:17:00,
2013-06-21 23:22:00,83.9,62.1,29.80,South,180,9.2,16.3,48,0.00,,,0.00,WUHU216HW,2013-06-22 04:22:00,
2013-06-21 23:27:00,83.7,61.9,29.80,South,180,15.0,18.6,48,0.00,,,0.00,WUHU216HW,2013-06-22 04:27:00,
2013-06-21 23:32:00,83.5,61.7,29.80,South,180,12.1,18.6,48,0.00,,,0.00,WUHU216HW,2013-06-22 04:32:00,
2013-06-21 23:37:00,83.3,60.9,29.80,SSW,203,12.1,15.0,47,0.00,,,0.00,WUHU216HW,2013-06-22 04:37:00,
2013-06-21 23:42:00,83.3,60.9,29.80,South,180,16.3,20.6,47,0.00,,,0.00,WUHU216HW,2013-06-22 04:42:00,
2013-06-21 23:47:00,83.2,60.8,29.80,South,180,12.1,21.7,47,0.00,,,0.00,WUHU216HW,2013-06-22 04:47:00,
2013-06-21 23:52:00,83.2,60.8,29.80,South,180,9.8,21.7,47,0.00,,,0.00,WUHU216HW,2013-06-22 04:52:00,
2013-06-21 23:57:00,83.0,60.6,29.81,South,180,10.5,15.0,47,0.00,,,0.00,WUHU216HW,2013-06-22 04:57:00,